Time,TemperatureF,DewpointF,PressureIn,WindDirection,WindDirectionDegrees,WindSpeedMPH,WindSpeedGustMPH,Humidity,HourlyPrecipIn,Conditions,Clouds,dailyrainin,SoftwareType,DateUTC
2013-06-27 04:43:00,72.0,58.0,29.59,North,0,0.0,2.0,62,0.00,,,-99.99,,2013-06-27 11:43:00,
2013-06-27 04:52:00,72.0,58.0,29.59,North,0,0.0,2.0,62,0.00,,,-99.99,,2013-06-27 11:52:00,
2013-06-27 05:42:00,72.0,58.0,29.59,North,-999,0.0,0.0,62,0.00,,,-99.99,,2013-06-27 12:42:00,
2013-06-27 06:43:00,71.0,59.0,29.61,North,-999,0.0,0.0,65,0.00,,,-99.99,,2013-06-27 13:43:00,
2013-06-27 07:43:00,75.0,59.0,29.63,North,-999,0.0,0.0,57,0.00,,,-99.99,,2013-06-27 14:43:00,
2013-06-27 08:42:00,78.0,58.0,29.64,North,0,0.0,1.0,50,0.00,,,-99.99,,2013-06-27 15:42:00,
2013-06-27 08:52:00,78.0,58.0,29.64,North,0,0.0,1.0,50,0.00,,,-99.99,,2013-06-27 15:52:00,
2013-06-27 09:11:00,78.0,58.0,29.65,WSW,240,1.0,1.0,51,0.00,,,-99.99,,2013-06-27 16:11:00,
2013-06-27 09:23:00,78.0,58.0,29.65,WSW,240,1.0,1.0,51,0.00,,,-99.99,,2013-06-27 16:23:00,
2013-06-27 09:43:00,79.0,59.0,29.66,North,-999,0.0,0.0,51,0.00,,,-99.99,,2013-06-27 16:43:00,
2013-06-27 09:53:00,81.0,60.0,29.66,North,0,0.0,1.0,49,0.00,,,-99.99,,2013-06-27 16:53:00,
2013-06-27 10:01:00,81.0,60.0,29.66,North,0,0.0,1.0,49,0.00,,,-99.99,,2013-06-27 17:01:00,
2013-06-27 10:11:00,81.0,60.0,29.66,North,0,0.0,1.0,49,0.00,,,-99.99,,2013-06-27 17:11:00,
2013-06-27 10:22:00,81.0,60.0,29.66,North,0,0.0,1.0,49,0.00,,,-99.99,,2013-06-27 17:22:00,
2013-06-27 10:43:00,83.0,60.0,29.66,WSW,250,1.0,2.0,46,0.00,,,-99.99,,2013-06-27 17:43:00,
2013-06-27 10:53:00,83.0,60.0,29.66,WSW,250,1.0,2.0,46,0.00,,,-99.99,,2013-06-27 17:53:00,
2013-06-27 12:42:00,85.0,61.0,29.64,SSW,210,4.0,7.0,44,0.00,,,-99.99,,2013-06-27 19:42:00,
2013-06-27 12:53:00,85.0,61.0,29.64,SSW,210,4.0,7.0,44,0.00,,,-99.99,,2013-06-27 19:53:00,
2013-06-27 13:11:00,87.0,60.0,29.65,North,0,0.0,5.0,41,0.00,,,-99.99,,2013-06-27 20:11:00,
2013-06-27 13:22:00,87.0,60.0,29.65,North,0,0.0,5.0,41,0.00,,,-99.99,,2013-06-27 20:22:00,
2013-06-27 13:45:00,87.0,60.0,29.65,SSE,150,1.0,4.0,41,0.00,,,-99.99,,2013-06-27 20:45:00,
2013-06-27 13:54:00,87.0,60.0,29.65,SSE,150,1.0,4.0,41,0.00,,,-99.99,,2013-06-27 20:54:00,
2013-06-27 14:24:00,88.0,61.0,29.63,North,0,0.0,9.0,41,0.00,,,-99.99,,2013-06-27 21:24:00,
2013-06-27 14:44:00,85.0,60.0,29.63,North,0,0.0,4.0,43,0.00,,,-99.99,,2013-06-27 21:44:00,
2013-06-27 15:13:00,87.0,60.0,29.62,SSW,210,1.0,3.0,40,0.00,,,-99.99,,2013-06-27 22:13:00,
2013-06-27 15:22:00,87.0,60.0,29.62,SSW,210,1.0,6.0,40,0.00,,,-99.99,,2013-06-27 22:22:00,
2013-06-27 15:33:00,87.0,60.0,29.62,SSW,210,1.0,6.0,40,0.00,,,-99.99,,2013-06-27 22:33:00,
2013-06-27 15:45:00,88.0,59.0,29.62,SSW,210,1.0,5.0,38,0.00,,,-99.99,,2013-06-27 22:45:00,
2013-06-27 15:57:00,88.0,59.0,29.62,SSW,210,1.0,5.0,38,0.00,,,-99.99,,2013-06-27 22:57:00,
2013-06-27 16:13:00,88.0,59.0,29.61,North,0,0.0,4.0,38,0.00,,,-99.99,,2013-06-27 23:13:00,
2013-06-27 16:24:00,88.0,59.0,29.61,North,0,0.0,4.0,38,0.00,,,-99.99,,2013-06-27 23:24:00,
2013-06-27 16:33:00,89.0,61.0,29.60,SSW,210,2.0,2.0,39,0.00,,,-99.99,,2013-06-27 23:33:00,
2013-06-27 16:57:00,86.0,60.0,29.60,North,0,0.0,8.0,41,0.00,,,-99.99,,2013-06-27 23:57:00,
2013-06-27 17:13:00,86.0,60.0,29.59,SSW,210,3.0,4.0,41,0.00,,,-99.99,,2013-06-28 00:13:00,
2013-06-27 17:25:00,86.0,60.0,29.59,SSW,210,3.0,4.0,41,0.00,,,-99.99,,2013-06-28 00:25:00,
2013-06-27 17:45:00,85.0,60.0,29.59,SSW,210,3.0,4.0,43,0.00,,,-99.99,,2013-06-28 00:45:00,
2013-06-27 17:55:00,85.0,60.0,29.59,SSW,210,3.0,4.0,43,0.00,,,-99.99,,2013-06-28 00:55:00,
2013-06-27 18:13:00,84.0,60.0,29.59,SSW,210,2.0,5.0,44,0.00,,,-99.99,,2013-06-28 01:13:00,
2013-06-27 18:23:00,84.0,59.0,29.59,North,0,0.0,5.0,43,0.00,,,-99.99,,2013-06-28 01:23:00,
2013-06-27 18:34:00,84.0,59.0,29.59,North,0,0.0,5.0,43,0.00,,,-99.99,,2013-06-28 01:34:00,
2013-06-27 18:45:00,85.0,57.0,29.59,North,0,0.0,5.0,39,0.00,,,-99.99,,2013-06-28 01:45:00,
2013-06-27 18:56:00,85.0,57.0,29.59,North,0,0.0,5.0,39,0.00,,,-99.99,,2013-06-28 01:56:00,
2013-06-27 19:24:00,84.0,58.0,29.58,SW,220,3.0,4.0,42,0.00,,,-99.99,,2013-06-28 02:24:00,
2013-06-27 19:46:00,84.0,56.0,29.58,SW,230,2.0,4.0,39,0.00,,,-99.99,,2013-06-28 02:46:00,
2013-06-27 19:56:00,84.0,56.0,29.58,SW,230,2.0,4.0,39,0.00,,,-99.99,,2013-06-28 02:56:00,
2013-06-27 20:13:00,82.0,56.0,29.58,West,270,2.0,3.0,41,0.00,,,-99.99,,2013-06-28 03:13:00,
2013-06-27 20:24:00,82.0,56.0,29.58,West,270,2.0,3.0,41,0.00,,,-99.99,,2013-06-28 03:24:00,
2013-06-27 20:56:00,79.0,55.0,29.59,North,0,0.0,1.0,44,0.00,,,-99.99,,2013-06-28 03:56:00,
2013-06-27 21:02:00,79.0,55.0,29.59,North,0,0.0,1.0,44,0.00,,,-99.99,,2013-06-28 04:02:00,
2013-06-27 21:11:00,79.0,56.0,29.59,WNW,300,1.0,2.0,45,0.00,,,-99.99,,2013-06-28 04:11:00,
2013-06-27 21:22:00,79.0,56.0,29.59,WNW,300,1.0,2.0,45,0.00,,,-99.99,,2013-06-28 04:22:00,
2013-06-27 21:33:00,78.0,55.0,29.59,North,-999,0.0,0.0,45,0.00,,,-99.99,,2013-06-28 04:33:00,
2013-06-27 21:43:00,78.0,55.0,29.59,North,-999,0.0,0.0,45,0.00,,,-99.99,,2013-06-28 04:43:00,
2013-06-27 21:53:00,78.0,55.0,29.59,North,-999,0.0,0.0,45,0.00,,,-99.99,,2013-06-28 04:53:00,
2013-06-27 22:11:00,81.0,54.0,29.60,North,0,0.0,1.0,39,0.00,,,-99.99,,2013-06-28 05:11:00,
2013-06-27 22:33:00,81.0,54.0,29.60,North,-999,0.0,0.0,39,0.00,,,-99.99,,2013-06-28 05:33:00,
2013-06-27 22:43:00,81.0,54.0,29.60,North,0,0.0,1.0,39,0.00,,,-99.99,,2013-06-28 05:43:00,
2013-06-27 23:02:00,81.0,52.0,29.61,North,-999,0.0,0.0,36,0.00,,,-99.99,,2013-06-28 06:02:00,
2013-06-27 23:11:00,81.0,52.0,29.61,North,-999,0.0,0.0,36,0.00,,,-99.99,,2013-06-28 06:11:00,
2013-06-27 23:42:00,81.0,53.0,29.61,North,-999,0.0,0.0,38,0.00,,,-99.99,,2013-06-28 06:42:00,